Experimental
NORAD ID: 28369
Int'l Code: 2004-025D
Perigee: 705.0 km
Apogee: 752.2 km
Inclination: 98.0 °
Period: 99.2 minutes
Semi major axis: 7099 km
Launch date: June 29, 2004
Source: Saudi Arabia (SAUD)
Two Line Element Set (TLE):
1 28369U 04025D 13169.00187524 .00000126 00000-0 42199-4 0 5710
2 28369 097.9945 153.0609 0033243 210.4661 182.1362 14.51268408474919
Source:
NASA's NSSDC Master Catalog entry for SAUDICOMSAT 1